GW2085 Weather Reports


Display with metric or nautical units.
time (UTC)temp
F
wind
direction
speed
MPH
gust
MPH
rain 1hr
in
rain 24hr
in
rain mn
in
humidity
%
barometer
mb
20260507104550 50 0 0.0 0.0 0.00 0.00 0.00 91 1016.2
20260507103052 50 0 0.0 0.0 0.00 0.00 0.00 90 1016.2
20260507101556 51 0 0.0 0.0 0.00 0.00 0.00 90 1016.4
20260507100054 51 0 0.0 0.0 0.00 0.00 0.00 90 1016.4
20260507094553 51 0 0.0 0.0 0.00 0.00 0.00 90 1016.5
20260507093058 51 0 0.0 0.0 0.00 0.00 0.00 90 1016.8
20260507091556 52 0 0.0 0.0 0.00 0.00 0.00 90 1016.7
20260507090054 52 0 0.0 0.0 0.00 0.00 0.00 90 1016.8
20260507084551 52 0 0.0 0.0 0.00 0.00 0.00 89 1017.0
20260507083052 53 0 0.0 0.0 0.00 0.00 0.00 89 1017.1
20260507081554 53 0 0.0 0.0 0.00 0.00 0.00 89 1017.3
20260507080111 53 0 0.0 0.0 0.00 0.00 0.00 88 1017.4
20260507074554 54 0 0.0 1.0 0.00 0.00 0.00 88 1017.5
20260507073051 54 0 0.0 1.0 0.00 0.00 0.00 88 1017.4
20260507071608 54 0 0.0 0.0 0.00 0.00 0.00 88 1017.4
20260507070055 54 0 0.0 0.0 0.00 0.00 0.00 87 1017.5
20260507064552 55 0 0.0 0.0 0.00 0.00 0.00 87 1017.4
20260507063057 55 0 0.0 0.0 0.00 0.00 0.00 86 1017.6
20260507061558 55 0 0.0 0.0 0.00 0.00 0.00 86 1017.4
20260507060058 56 0 0.0 0.0 0.00 0.00 0.00 85 1017.5
20260507054603 56 0 0.0 0.0 0.00 0.00 0.00 84 1017.4
20260507053117 57 0 0.0 0.0 0.00 0.00 0.00 83 1017.4
20260507051604 57 0 0.0 0.0 0.00 0.00 0.00 82 1017.4
20260507050056 58 0 0.0 0.0 0.00 0.00 0.00 81 1017.3
20260507044557 58 0 0.0 0.0 0.00 0.00 0.00 79 1017.2
20260507043100 59 0 0.0 0.0 0.00 0.00 0.00 78 1017.2
20260507041555 59 0 0.0 0.0 0.00 0.00 0.00 75 1017.2
20260507040049 60 0 0.0 1.0 0.00 0.00 0.00 74 1017.1
20260507034555 60 0 0.0 2.0 0.00 0.00 0.00 73 1017.1
20260507033052 61 0 0.0 1.0 0.00 0.00 0.00 72 1016.9
20260507031557 61 0 0.0 2.0 0.00 0.00 0.00 70 1016.8
20260507030056 62 0 0.0 3.0 0.00 0.00 0.00 69 1016.8
20260507024602 63 257 0.0 2.0 0.00 0.00 0.00 67 1016.7
20260507023054 63 276 0.0 2.0 0.00 0.00 0.00 66 1016.6
20260507021548 64 0 0.0 3.0 0.00 0.00 0.00 65 1016.5
20260507020051 65 240 1.0 5.0 0.00 0.00 0.00 64 1016.3
20260507014602 66 306 0.0 5.0 0.00 0.00 0.00 64 1016.2
20260507013051 67 319 1.0 6.0 0.00 0.00 0.00 64 1016.1
20260507011548 68 236 1.0 5.0 0.00 0.00 0.00 62 1016.0
20260507004559 70 342 2.0 6.0 0.00 0.00 0.00 57 1015.9
20260507003102 70 321 1.0 5.0 0.00 0.00 0.00 57 1015.9
20260507001556 70 272 3.0 4.0 0.00 0.00 0.00 56 1015.7
20260507000056 70 308 3.0 7.0 0.00 0.00 0.00 58 1015.6
20260506234555 71 323 2.0 7.0 0.00 0.00 0.00 56 1015.4
20260506233058 70 301 4.0 8.0 0.00 0.00 0.00 56 1015.5
20260506231601 71 263 2.0 7.0 0.00 0.00 0.00 56 1015.7
20260506230055 71 351 3.0 8.0 0.00 0.00 0.00 56 1015.6
20260506224553 70 249 3.0 9.0 0.00 0.00 0.00 57 1015.8
20260506223054 71 236 2.0 11.0 0.00 0.00 0.00 58 1015.8
20260506221552 71 338 3.0 7.0 0.00 0.00 0.00 57 1015.9
20260506220050 71 255 3.0 10.0 0.00 0.00 0.00 57 1016.1
20260506214603 72 319 3.0 8.0 0.00 0.00 0.00 54 1016.1
20260506213055 72 325 3.0 9.0 0.00 0.00 0.00 54 1016.2
20260506211550 72 290 4.0 9.0 0.00 0.00 0.00 54 1016.1
20260506210057 73 311 3.0 11.0 0.00 0.00 0.00 54 1016.2
20260506204553 73 221 3.0 8.0 0.00 0.00 0.00 53 1016.2
20260506203052 74 305 3.0 7.0 0.00 0.00 0.00 51 1016.3
20260506201551 74 247 3.0 9.0 0.00 0.00 0.00 49 1016.3
20260506194605 73 243 2.0 7.0 0.00 0.00 0.00 48 1016.8
20260506193056 73 143 3.0 12.0 0.00 0.00 0.00 50 1017.0
20260506191606 72 244 3.0 8.0 0.00 0.00 0.00 49 1017.3
20260506190053 72 174 3.0 6.0 0.00 0.00 0.00 50 1017.3
20260506184554 70 278 2.0 10.0 0.00 0.00 0.00 52 1017.4
20260506183120 70 240 3.0 7.0 0.00 0.00 0.00 52 1017.6
20260506181559 69 220 1.0 6.0 0.00 0.00 0.00 57 1017.7
20260506180114 68 336 2.0 6.0 0.00 0.00 0.00 58 1017.9
20260506174556 67 110 3.0 6.0 0.00 0.00 0.00 56 1018.0
20260506173121 67 296 2.0 5.0 0.00 0.00 0.00 58 1018.1
20260506171557 66 8 1.0 6.0 0.00 0.00 0.00 59 1018.2
20260506170100 64 75 1.0 4.0 0.00 0.00 0.00 62 1018.2
20260506164556 64 124 2.0 6.0 0.00 0.01 0.00 60 1018.3
20260506163103 64 225 1.0 3.0 0.00 0.01 0.00 65 1018.3
20260506161557 63 346 1.0 4.0 0.00 0.01 0.00 65 1018.3
20260506160056 62 269 0.0 3.0 0.00 0.01 0.00 66 1018.4
20260506154549 62 198 0.0 2.0 0.00 0.01 0.00 69 1018.4
20260506153051 59 67 1.0 2.0 0.00 0.01 0.00 72 1018.5
20260506151551 58 32 0.0 2.0 0.00 0.01 0.00 75 1018.5
20260506150058 56 65 0.0 3.0 0.00 0.01 0.00 82 1018.5
20260506144605 54 32 1.0 4.0 0.00 0.02 0.00 87 1018.5
20260506143054 52 0 0.0 2.0 0.00 0.02 0.00 91 1018.5
20260506141549 50 317 0.0 1.0 0.00 0.02 0.00 92 1018.4
20260506140054 49 0 0.0 0.0 0.00 0.02 0.00 92 1018.3
20260506134555 48 0 0.0 2.0 0.00 0.05 0.00 92 1018.3
20260506133057 47 0 0.0 0.0 0.00 0.05 0.00 91 1018.1
20260506131551 46 0 0.0 0.0 0.00 0.05 0.00 91 1017.9
20260506130052 46 0 0.0 0.0 0.00 0.05 0.00 91 1017.7
20260506124557 46 0 0.0 0.0 0.00 0.25 0.00 91 1017.6
20260506123053 46 0 0.0 0.0 0.00 0.25 0.00 91 1017.5
20260506121619 46 0 0.0 0.0 0.00 0.25 0.00 91 1017.5
20260506120050 46 0 0.0 0.0 0.00 0.25 0.00 90 1017.4
20260506114550 47 0 0.0 0.0 0.00 0.25 0.00 90 1017.4
20260506113051 47 0 0.0 0.0 0.00 0.25 0.00 90 1017.2
20260506111551 47 0 0.0 0.0 0.00 0.25 0.00 90 1017.3
20260506110051 48 0 0.0 0.0 0.00 0.25 0.00 90 1017.3